Time,TemperatureF,DewpointF,PressureIn,WindDirection,WindDirectionDegrees,WindSpeedMPH,WindSpeedGustMPH,Humidity,HourlyPrecipIn,Conditions,Clouds,dailyrainin,SoftwareType,DateUTC
2013-04-17 00:02:00,47.0,41.0,30.22,ENE,65,8.0,13.0,81,0.00,,,0.00,weatherlink.com 1.10,2013-04-17 05:02:00,
2013-04-17 00:17:00,46.7,41.0,30.22,East,79,10.0,18.0,81,0.00,,,0.00,weatherlink.com 1.10,2013-04-17 05:17:00,
2013-04-17 00:32:00,46.4,41.0,30.21,ENE,59,5.0,14.0,82,0.00,,,0.00,weatherlink.com 1.10,2013-04-17 05:32:00,
2013-04-17 00:47:00,46.1,40.0,30.23,East,95,5.0,14.0,79,0.00,,,0.00,weatherlink.com 1.10,2013-04-17 05:47:00,
2013-04-17 01:02:00,45.9,41.0,30.23,NE,44,4.0,11.0,82,0.00,,,0.00,weatherlink.com 1.10,2013-04-17 06:02:00,
2013-04-17 01:17:00,45.6,41.0,30.21,ENE,69,10.0,14.0,83,0.00,,,0.00,weatherlink.com 1.10,2013-04-17 06:17:00,
2013-04-17 01:32:00,45.4,41.0,30.20,ENE,57,8.0,13.0,83,0.00,,,0.00,weatherlink.com 1.10,2013-04-17 06:32:00,
2013-04-17 01:47:00,45.1,40.0,30.22,NE,46,8.0,13.0,83,0.00,,,0.00,weatherlink.com 1.10,2013-04-17 06:47:00,
2013-04-17 02:02:00,44.8,40.0,30.21,NE,46,10.0,16.0,83,0.00,,,0.00,weatherlink.com 1.10,2013-04-17 07:02:00,
2013-04-17 02:17:00,44.5,40.0,30.21,NE,49,7.0,14.0,83,0.00,,,0.00,weatherlink.com 1.10,2013-04-17 07:17:00,
2013-04-17 02:32:00,44.4,40.0,30.20,ENE,69,5.0,14.0,84,0.00,,,0.00,weatherlink.com 1.10,2013-04-17 07:32:00,
2013-04-17 02:47:00,44.2,39.0,30.19,NE,34,7.0,16.0,83,0.00,,,0.00,weatherlink.com 1.10,2013-04-17 07:47:00,
2013-04-17 03:02:00,43.9,39.0,30.20,ENE,59,10.0,16.0,83,0.00,,,0.00,weatherlink.com 1.10,2013-04-17 08:02:00,
2013-04-17 03:17:00,43.7,38.0,30.20,NNE,30,6.0,17.0,81,0.00,,,0.00,weatherlink.com 1.10,2013-04-17 08:17:00,
2013-04-17 03:32:00,43.5,38.0,30.20,NE,39,9.0,15.0,82,0.00,,,0.00,weatherlink.com 1.10,2013-04-17 08:32:00,
2013-04-17 03:47:00,43.3,38.0,30.20,NE,48,8.0,14.0,82,0.00,,,0.00,weatherlink.com 1.10,2013-04-17 08:47:00,
2013-04-17 04:02:00,43.2,38.0,30.19,NE,37,8.0,16.0,82,0.00,,,0.00,weatherlink.com 1.10,2013-04-17 09:02:00,
2013-04-17 04:17:00,43.2,38.0,30.19,NE,49,8.0,17.0,82,0.00,,,0.00,weatherlink.com 1.10,2013-04-17 09:17:00,
2013-04-17 04:32:00,43.1,38.0,30.18,ENE,57,12.0,16.0,83,0.00,,,0.00,weatherlink.com 1.10,2013-04-17 09:32:00,
2013-04-17 04:47:00,43.0,39.0,30.18,NE,53,10.0,14.0,84,0.00,,,0.00,weatherlink.com 1.10,2013-04-17 09:47:00,
2013-04-17 05:02:00,43.0,39.0,30.17,ENE,57,11.0,16.0,84,0.00,,,0.00,weatherlink.com 1.10,2013-04-17 10:02:00,
2013-04-17 05:17:00,43.2,39.0,30.18,ENE,74,9.0,14.0,84,0.00,,,0.00,weatherlink.com 1.10,2013-04-17 10:17:00,
2013-04-17 05:32:00,43.3,39.0,30.17,East,96,7.0,17.0,84,0.00,,,0.00,weatherlink.com 1.10,2013-04-17 10:32:00,
2013-04-17 05:47:00,43.3,39.0,30.16,ENE,61,12.0,19.0,84,0.00,,,0.00,weatherlink.com 1.10,2013-04-17 10:47:00,
2013-04-17 06:02:00,43.4,39.0,30.17,East,81,6.0,15.0,84,0.00,,,0.00,weatherlink.com 1.10,2013-04-17 11:02:00,
2013-04-17 06:17:00,43.5,39.0,30.16,ENE,75,11.0,18.0,84,0.00,,,0.00,weatherlink.com 1.10,2013-04-17 11:17:00,
2013-04-17 06:32:00,43.7,40.0,30.16,ENE,78,7.0,17.0,85,0.00,,,0.00,weatherlink.com 1.10,2013-04-17 11:32:00,
2013-04-17 06:47:00,44.0,40.0,30.16,East,80,8.0,16.0,85,0.00,,,0.00,weatherlink.com 1.10,2013-04-17 11:47:00,
2013-04-17 07:02:00,44.2,40.0,30.16,East,96,9.0,15.0,85,0.00,,,0.00,weatherlink.com 1.10,2013-04-17 12:02:00,
2013-04-17 07:17:00,44.4,40.0,30.16,East,88,7.0,18.0,85,0.00,,,0.00,weatherlink.com 1.10,2013-04-17 12:17:00,
2013-04-17 07:33:00,44.7,41.0,30.14,ENE,60,12.0,14.0,86,0.00,,,0.00,weatherlink.com 1.10,2013-04-17 12:33:00,
2013-04-17 07:48:00,45.3,41.0,30.16,East,98,9.0,18.0,86,0.00,,,0.00,weatherlink.com 1.10,2013-04-17 12:48:00,
2013-04-17 08:03:00,45.6,41.0,30.15,ENE,78,11.0,18.0,85,0.00,,,0.00,weatherlink.com 1.10,2013-04-17 13:03:00,
2013-04-17 08:18:00,46.0,42.0,30.13,East,98,13.0,18.0,85,0.00,,,0.00,weatherlink.com 1.10,2013-04-17 13:18:00,
2013-04-17 08:33:00,46.8,43.0,30.13,East,88,5.0,17.0,85,0.00,,,0.00,weatherlink.com 1.10,2013-04-17 13:33:00,
2013-04-17 08:48:00,47.7,43.0,30.14,ESE,111,9.0,17.0,85,0.00,,,0.00,weatherlink.com 1.10,2013-04-17 13:48:00,
2013-04-17 09:03:00,48.6,44.0,30.11,ENE,78,10.0,19.0,84,0.00,,,0.00,weatherlink.com 1.10,2013-04-17 14:03:00,
2013-04-17 09:18:00,49.3,45.0,30.11,ESE,117,14.0,21.0,84,0.00,,,0.00,weatherlink.com 1.10,2013-04-17 14:18:00,
2013-04-17 09:33:00,49.8,45.0,30.07,ESE,112,16.0,25.0,84,0.00,,,0.00,weatherlink.com 1.10,2013-04-17 14:33:00,
2013-04-17 09:48:00,50.5,46.0,30.08,ESE,123,10.0,20.0,85,0.00,,,0.00,weatherlink.com 1.10,2013-04-17 14:48:00,
2013-04-17 10:03:00,50.8,47.0,30.09,ESE,115,11.0,17.0,85,0.00,,,0.00,weatherlink.com 1.10,2013-04-17 15:03:00,
2013-04-17 10:18:00,50.8,47.0,30.09,East,91,7.0,17.0,86,0.00,,,0.00,weatherlink.com 1.10,2013-04-17 15:18:00,
2013-04-17 10:33:00,50.9,47.0,30.09,East,85,7.0,14.0,87,0.00,,,0.00,weatherlink.com 1.10,2013-04-17 15:33:00,
2013-04-17 10:48:00,50.8,47.0,30.08,ESE,115,7.0,16.0,88,0.00,,,0.00,weatherlink.com 1.10,2013-04-17 15:48:00,
2013-04-17 11:03:00,50.7,48.0,30.08,East,82,9.0,15.0,89,0.00,,,0.00,weatherlink.com 1.10,2013-04-17 16:03:00,
2013-04-17 11:18:00,50.3,48.0,30.07,ESE,117,5.0,14.0,90,0.00,,,0.00,weatherlink.com 1.10,2013-04-17 16:18:00,
2013-04-17 11:33:00,50.6,48.0,30.06,ESE,117,8.0,16.0,91,0.00,,,0.00,weatherlink.com 1.10,2013-04-17 16:33:00,
2013-04-17 12:03:00,51.8,49.0,30.04,East,98,8.0,16.0,91,0.00,,,0.00,weatherlink.com 1.10,2013-04-17 17:03:00,
2013-04-17 12:18:00,51.9,49.0,30.03,East,92,11.0,19.0,91,0.00,,,0.00,weatherlink.com 1.10,2013-04-17 17:18:00,
2013-04-17 12:33:00,52.4,50.0,30.02,ESE,117,8.0,19.0,92,0.00,,,0.00,weatherlink.com 1.10,2013-04-17 17:33:00,
2013-04-17 12:48:00,52.7,51.0,30.01,ESE,122,12.0,17.0,92,0.00,,,0.00,weatherlink.com 1.10,2013-04-17 17:48:00,
2013-04-17 13:03:00,53.4,52.0,30.00,ESE,109,11.0,18.0,93,0.00,,,0.00,weatherlink.com 1.10,2013-04-17 18:03:00,
2013-04-17 13:18:00,54.5,53.0,30.00,SE,140,11.0,18.0,93,0.00,,,0.00,weatherlink.com 1.10,2013-04-17 18:18:00,
2013-04-17 13:33:00,55.3,53.0,29.98,SE,125,14.0,17.0,93,0.00,,,0.00,weatherlink.com 1.10,2013-04-17 18:33:00,
2013-04-17 13:48:00,56.2,55.0,29.97,SE,125,9.0,18.0,94,0.00,,,0.00,weatherlink.com 1.10,2013-04-17 18:48:00,
2013-04-17 14:04:00,57.5,56.0,29.95,SE,141,12.0,19.0,94,0.00,,,0.00,weatherlink.com 1.10,2013-04-17 19:04:00,
2013-04-17 14:19:00,58.7,57.0,29.94,SE,134,18.0,22.0,94,0.00,,,0.00,weatherlink.com 1.10,2013-04-17 19:19:00,
2013-04-17 14:34:00,59.6,58.0,29.93,SE,129,15.0,21.0,95,0.00,,,0.00,weatherlink.com 1.10,2013-04-17 19:34:00,
2013-04-17 14:49:00,60.4,59.0,29.92,SSE,155,11.0,18.0,95,0.00,,,0.00,weatherlink.com 1.10,2013-04-17 19:49:00,
2013-04-17 15:04:00,61.5,60.0,29.91,SE,131,14.0,20.0,94,0.00,,,0.00,weatherlink.com 1.10,2013-04-17 20:04:00,
2013-04-17 15:19:00,62.9,61.0,29.90,SSE,159,10.0,18.0,94,0.00,,,0.00,weatherlink.com 1.10,2013-04-17 20:19:00,
2013-04-17 15:34:00,63.7,62.0,29.94,WNW,285,14.0,21.0,94,0.00,,,0.00,weatherlink.com 1.10,2013-04-17 20:34:00,
2013-04-17 15:49:00,56.3,55.0,29.93,NE,42,0.0,18.0,94,0.00,,,0.00,weatherlink.com 1.10,2013-04-17 20:49:00,
2013-04-17 16:04:00,58.0,57.0,29.95,NNW,343,8.0,14.0,95,0.00,,,0.00,weatherlink.com 1.10,2013-04-17 21:04:00,
2013-04-17 16:19:00,53.5,52.0,29.98,NW,322,9.0,19.0,93,0.00,,,0.00,weatherlink.com 1.10,2013-04-17 21:19:00,
2013-04-17 16:34:00,51.0,50.0,29.97,North,360,16.0,21.0,95,0.02,,,0.02,weatherlink.com 1.10,2013-04-17 21:34:00,
2013-04-17 16:49:00,48.2,47.0,29.97,North,349,19.0,26.0,95,0.03,,,0.03,weatherlink.com 1.10,2013-04-17 21:49:00,
2013-04-17 17:04:00,45.9,45.0,29.97,North,355,23.0,33.0,95,0.03,,,0.03,weatherlink.com 1.10,2013-04-17 22:04:00,
2013-04-17 17:19:00,45.3,44.0,29.96,NNE,32,15.0,34.0,96,0.03,,,0.03,weatherlink.com 1.10,2013-04-17 22:19:00,
2013-04-17 17:34:00,45.2,44.0,29.93,NNE,24,21.0,35.0,96,0.01,,,0.03,weatherlink.com 1.10,2013-04-17 22:34:00,
2013-04-17 17:49:00,46.5,45.0,29.93,NE,36,16.0,28.0,95,0.00,,,0.03,weatherlink.com 1.10,2013-04-17 22:49:00,
2013-04-17 18:04:00,48.4,47.0,29.91,ENE,76,9.0,25.0,95,0.00,,,0.03,weatherlink.com 1.10,2013-04-17 23:04:00,
2013-04-17 18:19:00,49.1,48.0,29.91,NE,44,5.0,27.0,95,0.00,,,0.03,weatherlink.com 1.10,2013-04-17 23:19:00,
2013-04-17 18:34:00,49.8,48.0,29.89,ENE,78,13.0,19.0,94,0.00,,,0.03,weatherlink.com 1.10,2013-04-17 23:34:00,
2013-04-17 18:49:00,50.2,49.0,29.88,NE,54,11.0,14.0,94,0.00,,,0.03,weatherlink.com 1.10,2013-04-17 23:49:00,
2013-04-17 19:04:00,50.4,49.0,29.87,ENE,77,8.0,17.0,94,0.00,,,0.03,weatherlink.com 1.10,2013-04-18 00:04:00,
2013-04-17 19:19:00,50.4,49.0,29.88,NNE,22,3.0,21.0,94,0.00,,,0.03,weatherlink.com 1.10,2013-04-18 00:19:00,
2013-04-17 19:34:00,50.7,49.0,29.87,ENE,75,7.0,11.0,94,0.00,,,0.03,weatherlink.com 1.10,2013-04-18 00:34:00,
2013-04-17 19:49:00,51.2,50.0,29.86,SE,134,12.0,16.0,94,0.00,,,0.03,weatherlink.com 1.10,2013-04-18 00:49:00,
2013-04-17 20:04:00,51.2,50.0,29.86,ESE,113,11.0,19.0,94,0.00,,,0.03,weatherlink.com 1.10,2013-04-18 01:04:00,
2013-04-17 20:19:00,51.2,50.0,29.85,East,100,5.0,15.0,94,0.00,,,0.03,weatherlink.com 1.10,2013-04-18 01:19:00,
2013-04-17 20:49:00,51.1,50.0,29.86,East,88,8.0,13.0,94,0.00,,,0.03,weatherlink.com 1.10,2013-04-18 01:49:00,
2013-04-17 21:04:00,51.2,50.0,29.88,East,80,9.0,13.0,94,0.00,,,0.03,weatherlink.com 1.10,2013-04-18 02:04:00,
2013-04-17 21:19:00,51.6,50.0,29.87,North,350,3.0,17.0,94,0.00,,,0.03,weatherlink.com 1.10,2013-04-18 02:19:00,
2013-04-17 21:34:00,51.5,50.0,29.85,ENE,59,7.0,15.0,94,0.00,,,0.03,weatherlink.com 1.10,2013-04-18 02:34:00,
2013-04-17 21:49:00,51.7,50.0,29.82,ENE,59,8.0,15.0,95,0.00,,,0.03,weatherlink.com 1.10,2013-04-18 02:49:00,
2013-04-17 22:04:00,51.6,50.0,29.81,East,81,7.0,19.0,95,0.00,,,0.03,weatherlink.com 1.10,2013-04-18 03:04:00,
2013-04-17 22:19:00,51.6,50.0,29.81,ENE,70,7.0,11.0,95,0.00,,,0.03,weatherlink.com 1.10,2013-04-18 03:19:00,
2013-04-17 22:34:00,51.5,50.0,29.80,East,82,8.0,14.0,95,0.00,,,0.03,weatherlink.com 1.10,2013-04-18 03:34:00,
2013-04-17 22:49:00,51.5,50.0,29.79,East,98,8.0,12.0,95,0.00,,,0.03,weatherlink.com 1.10,2013-04-18 03:49:00,
2013-04-17 23:05:00,51.6,51.0,29.77,East,89,10.0,14.0,96,0.00,,,0.03,weatherlink.com 1.10,2013-04-18 04:05:00,
2013-04-17 23:20:00,51.8,51.0,29.76,ENE,69,7.0,15.0,96,0.00,,,0.00,weatherlink.com 1.10,2013-04-18 04:20:00,
2013-04-17 23:35:00,52.2,51.0,29.76,ESE,119,3.0,11.0,96,0.00,,,0.00,weatherlink.com 1.10,2013-04-18 04:35:00,
2013-04-17 23:50:00,52.8,52.0,29.75,ESE,108,4.0,10.0,97,0.00,,,0.00,weatherlink.com 1.10,2013-04-18 04:50:00,